Weather reports worldwide

Advertisment
Bezier-Vias, France (7638): temperature & dewpoint: 20.03.2019 08:00:00 - 26.03.2019 08:00:00 (CET)Bezier-Vias, France (7638): wind speed & gusts: 20.03.2019 08:00:00 - 26.03.2019 08:00:00 (CET)Bezier-Vias, France (7638): wind direction: 20.03.2019 08:00:00 - 26.03.2019 08:00:00 (CET)Bezier-Vias, France (7638): reduced air pressure: 20.03.2019 08:00:00 - 26.03.2019 08:00:00 (CET)Bezier-Vias, France (7638): visibility: 20.03.2019 08:00:00 - 26.03.2019 08:00:00 (CET)Bezier-Vias, France (7638): precipitation: 20.03.2019 08:00:00 - 26.03.2019 08:00:00 (CET)
Date & Time tt [°C] td [°C] ff [km/h] ff [kn] fx [km/h] fx [kn] dd ppp [hPa] vv [km] rr [mm]
26.03.2019 08:00:00 9,2 -3,4 39 21 63 34 NW 1023,2 46 0,0
26.03.2019 07:00:00 8,3 -3,9 36 20 53 29 NW 1023,2 43 0,0
26.03.2019 06:00:00 7,9 -3,9 27 14 44 24 NW 1023,0 60 0,0
26.03.2019 05:00:00 8,4 -4,8 25 13 42 23 NW 1022,9 60 0,0
26.03.2019 04:00:00 9,0 -4,9 28 15 50 27 NW 1022,7 60 0,0
26.03.2019 03:00:00 9,2 -4,8 26 14 50 27 NW 1022,3 60 0,0
26.03.2019 02:00:00 9,8 -4,6 30 16 55 30 NW 1022,0 60 0,0
26.03.2019 01:00:00 9,8 -4,6 27 14 50 27 NW 1022,1 60 0,0
26.03.2019 00:00:00 10,5 -4,0 26 14 45 24 NW 1022,2 60 0,0
25.03.2019 23:00:00 10,7 -3,4 30 16 68 37 NNW 1021,8 60 0,0
25.03.2019 22:00:00 11,8 -2,8 38 20 62 33 NNW 1021,4 60 0,0
25.03.2019 21:00:00 12,6 -2,1 32 17 49 26 N 1020,3 60 0,0
25.03.2019 20:00:00 14,9 -2,5 35 19 48 26 N 1019,2 60 0,0
25.03.2019 19:00:00 15,5 1,2 18 10 53 29 WNW 1018,0 42 0,0
25.03.2019 18:00:00 17,8 2,1 34 18 67 36 NW 1017,7 29 0,0
25.03.2019 17:00:00 18,6 1,1 43 23 67 36 NW 1017,6 20 0,0
25.03.2019 16:00:00 18,4 3,4 50 27 72 39 WNW 1017,9 17 0,0
25.03.2019 15:00:00 19,2 2,1 41 22 68 37 NW 1018,2 18 0,0
25.03.2019 14:00:00 19,5 2,8 35 19 54 29 NW 1018,7 20 0,0
25.03.2019 13:00:00 18,5 0,6 33 18 68 37 WNW 1019,5 19 0,0
25.03.2019 12:00:00 17,2 2,0 37 20 59 32 W 1020,3 19 0,0
25.03.2019 11:00:00 17,0 2,2 35 19 54 29 W 1021,2 19 0,0
25.03.2019 10:00:00 15,9 3,3 30 16 43 23 W 1021,5 18 0,0
25.03.2019 09:00:00 14,0 2,5 4 2 16 9 N 1021,3 20 0,0
25.03.2019 08:00:00 10,6 2,4 10 5 16 9 W 1021,1 44 0,0
25.03.2019 07:00:00 9,2 1,4 4 2 19 10 W 1021,1 34 0,0
25.03.2019 06:00:00 8,7 1,6 14 8 23 13 N 1020,8 39 0,0
25.03.2019 05:00:00 8,8 0,2 12 6 17 9 NNW 1020,9 60 0,0
25.03.2019 04:00:00 8,0 0,5 4 2 13 7 NW 1021,1 60 0,0
25.03.2019 03:00:00 7,5 0,7 8 4 15 8 WNW 1021,5 60 0,0
25.03.2019 02:00:00 8,1 1,2 6 4 12 6 NNW 1021,6 60 0,0
25.03.2019 01:00:00 9,1 1,5 2 1 11 6 W 1021,7 60 0,0
25.03.2019 00:00:00 9,4 2,3 4 2 9 5 W 1021,7 59 0,0
24.03.2019 23:00:00 10,6 2,4 7 4 9 5 W 1021,5 60 0,0
24.03.2019 22:00:00 12,4 3,1 6 4 15 8 WNW 1021,3 60 0,0
24.03.2019 21:00:00 13,8 2,7 10 6 16 8 W 1021,0 60 0,0
24.03.2019 20:00:00 17,0 2,2 16 8 26 14 WNW 1020,7 60 0,0
24.03.2019 19:00:00 18,4 4,2 10 5 14 8 NNW 1020,3 60 0,0
24.03.2019 18:00:00 19,0 8,0 4 2 24 13 E 1019,9 19 0,0
24.03.2019 17:00:00 20,3 4,3 17 9 29 16 S 1019,9 44 0,0
24.03.2019 16:00:00 20,5 4,1 16 9 28 15 S 1020,5 60 0,0
24.03.2019 15:00:00 21,6 3,3 19 11 29 16 SSE 1021,1 60 0,0
24.03.2019 14:00:00 24,6 4,3 14 7 29 16 WSW 1021,7 58 0,0
24.03.2019 13:00:00 22,5 4,0 13 7 21 12 S 1022,9 59 0,0
24.03.2019 12:00:00 21,5 5,0 7 4 18 10 S 1023,5 37 0,0
24.03.2019 11:00:00 20,2 3,8 3 2 10 5 SSW 1023,9 20 0,0
24.03.2019 10:00:00 16,7 4,0 5 3 11 6 WNW 1024,1 27 0,0
24.03.2019 09:00:00 13,7 5,3 6 3 9 5 WSW 1024,1 43 0,0
24.03.2019 08:00:00 9,1 4,3 5 3 7 4 NW 1023,9 45 0,0
24.03.2019 07:00:00 5,8 2,6 5 3 8 5 NNW 1023,7 53 0,0
24.03.2019 06:00:00 6,4 1,5 6 3 9 5 WNW 1023,6 51 0,0
24.03.2019 05:00:00 6,8 2,5 8 5 11 6 NNW 1023,4 53 0,0
24.03.2019 04:00:00 7,1 3,0 9 5 11 6 N 1023,3 44 0,0
24.03.2019 03:00:00 6,7 2,0 4 2 11 6 W 1023,4 46 0,0
24.03.2019 02:00:00 7,9 2,6 5 3 8 5 NW 1023,6 44 0,0
24.03.2019 01:00:00 8,2 3,4 7 4 13 7 NNE 1023,9 44 0,0
24.03.2019 00:00:00 8,9 3,1 4 2 17 9 WNW 1023,8 51 0,0
23.03.2019 23:00:00 9,8 3,1 5 3 10 5 NW 1023,7 53 0,0
23.03.2019 22:00:00 11,5 3,8 3 1 10 5 SE 1023,6 58 0,0
23.03.2019 21:00:00 12,8 4,0 3 2 14 7 NNE 1023,2 60 0,0
23.03.2019 20:00:00 14,1 4,4 6 3 9 5 N 1022,5 60 0,0
23.03.2019 19:00:00 17,8 4,7 3 2 12 7 SE 1022,0 60 0,0
23.03.2019 18:00:00 21,2 3,8 9 5 20 11 SSE 1021,7 59 0,0
23.03.2019 17:00:00 22,4 3,0 13 7 30 16 SSE 1021,9 52 0,0
23.03.2019 16:00:00 23,0 4,0 17 9 29 16 S 1022,1 39 0,0
23.03.2019 15:00:00 24,8 2,8 18 10 28 15 S 1022,6 37 0,0
23.03.2019 14:00:00 24,8 1,6 11 6 25 14 S 1023,4 9 0,0
23.03.2019 13:00:00 24,4 3,6 8 4 25 14 SSW 1024,5 47 0,0
23.03.2019 12:00:00 22,7 4,7 9 5 21 11 W 1025,3 37 0,0
23.03.2019 11:00:00 19,6 5,6 10 6 23 12 W 1025,8 40 0,0
23.03.2019 10:00:00 15,3 4,9 13 7 29 16 W 1026,1 44 0,0
23.03.2019 09:00:00 12,3 4,0 16 9 24 13 W 1026,2 42 0,0
23.03.2019 08:00:00 9,1 4,9 14 8 21 12 W 1026,3 54 0,0
23.03.2019 07:00:00 4,3 1,5 10 5 11 6 WNW 1026,2 38 0,0
23.03.2019 06:00:00 3,9 0,9 9 5 11 6 WNW 1026,0 38 0,0
23.03.2019 05:00:00 4,9 1,4 9 5 11 6 NW 1026,1 36 0,0
23.03.2019 04:00:00 3,9 0,6 7 4 10 5 W 1026,3 36 0,0
23.03.2019 03:00:00 5,1 0,5 4 2 13 7 WSW 1026,5 40 0,0
23.03.2019 02:00:00 4,8 0,0 11 6 12 7 WNW 1026,6 44 0,0
23.03.2019 01:00:00 5,5 -0,4 3 1 7 4 W 1026,8 48 0,0
23.03.2019 00:00:00 6,1 -1,3 4 2 5 3 NNW 1027,0 45 0,0
22.03.2019 23:00:00 8,7 -0,6 3 2 9 5 W 1027,1 46 0,0
22.03.2019 22:00:00 9,1 -0,3 5 3 8 5 NW 1026,9 46 0,0
22.03.2019 21:00:00 9,7 0,8 5 3 8 4 W 1026,8 39 0,0
22.03.2019 20:00:00 11,9 2,9 6 3 9 5 WSW 1026,5 20 0,0
22.03.2019 19:00:00 16,3 1,2 6 4 14 8 SW 1026,1 39 0,0
22.03.2019 18:00:00 18,5 -0,4 13 7 27 14 SW 1026,1 52 0,0
22.03.2019 17:00:00 20,4 -3,3 11 6 23 13 SSW 1026,2 59 0,0
22.03.2019 16:00:00 20,8 -1,1 14 8 26 14 SSW 1026,8 47 0,0
22.03.2019 15:00:00 19,6 1,1 9 5 22 12 S 1027,4 20 0,0
22.03.2019 14:00:00 18,9 3,1 10 5 25 13 S 1028,1 20 0,0
22.03.2019 13:00:00 18,2 2,5 16 8 26 14 S 1028,7 20 0,0
22.03.2019 12:00:00 19,0 0,1 4 2 15 8 S 1028,8 60 0,0
22.03.2019 11:00:00 17,2 0,8 4 2 15 8 N 1029,1 39 0,0
22.03.2019 10:00:00 13,8 2,7 7 4 14 8 NW 1029,4 35 0,0
22.03.2019 09:00:00 9,7 2,1 6 3 10 5 NNW 1029,4 20 0,0
22.03.2019 08:00:00 5,0 2,0 5 3 10 6 WNW 1029,3 35 0,0
22.03.2019 07:00:00 2,3 -0,6 6 4 10 5 W 1028,8 38 0,0
22.03.2019 06:00:00 2,3 -0,1 7 4 9 5 WNW 1028,4 24 0,0
22.03.2019 05:00:00 3,5 -0,2 2 1 9 5 NW 1028,3 28 0,0
22.03.2019 04:00:00 4,1 0,8 3 2 9 5 N 1028,3 30 0,0
22.03.2019 03:00:00 4,4 1,2 4 2 10 5 N 1028,3 28 0,0
22.03.2019 02:00:00 3,8 1,0 4 2 8 5 NNW 1028,7 22 0,0
22.03.2019 01:00:00 4,2 1,4 4 2 14 8 NNW 1028,8 22 0,0
22.03.2019 00:00:00 4,8 2,7 5 3 10 5 N 1028,6 22 0,0
21.03.2019 23:00:00 4,7 2,7 4 2 6 3 NNE 1028,4 21 0,0
21.03.2019 22:00:00 5,1 1,8 0 0 4 2 N 1028,4 23 0,0
21.03.2019 21:00:00 6,7 2,8 3 2 9 5 ENE 1028,2 32 0,0
21.03.2019 20:00:00 8,5 3,7 3 1 13 7 NNW 1027,7 32 0,0
21.03.2019 19:00:00 12,0 5,6 8 4 15 8 SSW 1027,4 35 0,0
21.03.2019 18:00:00 13,5 4,6 11 6 20 11 S 1027,2 45 0,0
21.03.2019 17:00:00 14,4 2,3 12 7 20 11 SSE 1027,3 39 0,0
21.03.2019 16:00:00 15,0 1,1 11 6 24 13 SSE 1027,3 60 0,0
21.03.2019 15:00:00 15,1 0,1 15 8 28 15 SSE 1027,8 60 0,0
21.03.2019 14:00:00 14,6 -0,7 16 9 31 17 S 1028,3 60 0,0
21.03.2019 13:00:00 16,2 -0,5 14 7 34 19 SSW 1028,8 60 0,0
21.03.2019 12:00:00 15,6 -1,9 6 3 16 9 NNW 1029,4 60 0,0
21.03.2019 11:00:00 13,6 -2,0 6 4 17 9 S 1029,9 60 0,0
21.03.2019 10:00:00 11,4 -0,4 4 2 11 6 WSW 1030,0 20 0,0
21.03.2019 09:00:00 8,4 -1,2 4 2 12 6 NNW 1030,0 49 0,0
21.03.2019 08:00:00 3,6 -1,8 4 2 11 6 WSW 1029,9 50 0,0
21.03.2019 07:00:00 2,0 -2,5 4 2 11 6 N 1029,5 60 0,0
21.03.2019 06:00:00 1,5 -3,4 8 4 14 7 WNW 1029,0 60 0,0
21.03.2019 05:00:00 2,7 -3,0 5 3 11 6 NW 1028,9 60 0,0
21.03.2019 04:00:00 2,2 -2,9 6 3 12 7 W 1028,7 52 0,0
21.03.2019 03:00:00 3,1 -2,4 6 3 14 8 NNW 1029,0 57 0,0
21.03.2019 02:00:00 2,7 -2,8 7 4 10 5 W 1029,3 58 0,0
21.03.2019 01:00:00 3,9 -2,3 5 3 11 6 WNW 1029,6 60 0,0
21.03.2019 00:00:00 4,8 -2,1 5 3 9 5 WNW 1029,6 60 0,0
20.03.2019 23:00:00 6,5 -1,4 3 2 9 5 WNW 1029,7 60 0,0
20.03.2019 22:00:00 8,4 -1,4 5 3 18 10 WNW 1029,4 60 0,0
20.03.2019 21:00:00 9,1 -1,3 7 4 21 12 NW 1028,9 60 0,0
20.03.2019 20:00:00 12,4 -0,8 14 8 29 16 W 1027,9 60 0,0
20.03.2019 19:00:00 14,8 -1,3 13 7 19 10 SW 1027,1 60 0,0
20.03.2019 18:00:00 17,1 -2,1 11 6 21 11 SE 1026,5 60 0,0
20.03.2019 17:00:00 18,6 -2,4 8 4 21 12 NW 1026,3 57 0,0
20.03.2019 16:00:00 17,3 -2,9 14 8 33 18 NW 1026,6 60 0,0
20.03.2019 15:00:00 16,8 -1,4 20 11 39 21 W 1027,2 60 0,0
20.03.2019 14:00:00 16,4 -3,2 15 8 31 17 W 1028,0 60 0,0
20.03.2019 13:00:00 15,3 -3,6 11 6 30 16 WSW 1028,9 60 0,0
20.03.2019 12:00:00 14,3 -3,1 16 9 29 15 W 1029,5 60 0,0
20.03.2019 11:00:00 13,0 -1,0 16 9 25 13 W 1029,7 60 0,0
20.03.2019 10:00:00 11,1 0,2 14 7 19 10 W 1029,9 50 0,0
20.03.2019 09:00:00 8,0 0,7 12 7 22 12 W 1029,9 49 0,0
20.03.2019 08:00:00 4,6 1,3 12 7 19 10 W 1029,4 36 0,0

tt = temperature
td = dewpoint
ff = wind speed
fx = gusts
dd = wind direction
ppp = reduced air pressure
vv = visibility
rr = precipitation

Next stations